STARLINK-32528, 61724

Orbit data source: Space-Track

STARLINK-32528, 61724 is a payload satellite owned by SpaceX/Seattle (US) in LEO that was launched on Wed, 30 Oct 2024 UTC via an FALCON 9 launch vehicle from the Air Force Eastern Test Range (AFETR). Payload-class satellites include a variety of spacecraft equipped with specific instruments for various scientific and technological missions. These include communications satellites like Starlink; space stations such as the ISS; scientific satellites like the Hubble; Earth observation satellites from companies like Planet Labs, Umbra, and HawkEye 360; GPS; miniature CubeSats for education and research; and military/defense satellites.

Loading next visibility...
Identifier
61724, 2024-196T
Orbit
LEO
Country
Flag of USUS
Related business
Manufacturer
SpaceX/Seattle
Mission
Operational Commercial Communications
Bus & Motor
STARLINK V2M, Unknown motor
Mass
730 kg wet, ~700 kg dry
Launch date (UTC)
2024-10-30 (11 months ago)
Launch vehicle
FALCON 9
Launch site
Air Force Eastern Test Range (AFETR)
Object type
Payload
Rocket body
Debris
Shape & HBR
Box + 2 Pan, 14.5 m
Radar Cross Section
36.964 m², Large (>1 m²)

Expand to show TLE details & history
Last TLE update: 13 hours ago

TLE from 13 hours ago
0 STARLINK-32528
1 61724U 24196T   25260.94484513  .00000841  00000-0  40513-4 0  9995
2 61724  53.1596 184.0731 0001185  81.3752 278.7383 15.30204697 49509
Epoch: 2025-09-17T22:40Z
TLE epoch observation values (Epoch: 2025-09-17T22:40:34.619Z)
Latitude
-0.00001°
Longitude
-153.18467°
Altitude
475.977 km
Speed
7.629 km/s
True Right ascension
12h 16m 17s
True Declination
0° 00' 00"
Sunlit
Object was in daylight at epoch
Visualization orbit readout
Latitude
Unknown
Longitude
Unknown
Altitude
Unknown
Speed
Unknown
Apparent Right ascension
Unknown
Apparent Declination
Unknown
Sunlit
N/A
Visualization observer readout
Local Sidereal Time
04:01:58
Azimuth
Unknown
Elevation
Unknown
Doppler factor
Unknown
Orbital elements
Apogee altitude
476.27 km
Perigee altitude
474.645 km
Semi-major axis
6,853.595 km
Eccentricity
0.00012
Inclination
53.1596°
RAAN
184.0731°
Arg. of periapsis
81.3752°
True anomaly
278.72488°
Mean anomaly
278.7383°
Eccentric anomaly
278.73159°
Mean motion
3.8253 °/min
Orbital period
94.11 mins
BSTAR
0.000040513
Loading maneuver chart data...
Computing Atmospheric mass density...
Loading historical data...
Loading historical data...
Loading historical data...
Loading historical data...
Loading historical data...
Loading historical data...
Loading historical data...

Documentation

Showing up to 5 results
|